Regional Weather Roundup
Issued by NWS

Home | Current Version | Previous Version | Text Only | Print | Product List | Glossary Off
Versions: 1 2 3 4 5 6 7 8 9 10 11 12 13 14 15 16 17 18 19 20 21 22 23 24 25 26 27 28 29 30 31 32 33 34 35 36 37 38 39 40 41 42 43 44 45 46 47 48 49 50

000
ASUS43 KMPX 011001
RWRMN
WEATHER ROUNDUP FOR MINNESOTA
NATIONAL WEATHER SERVICE TWIN CITIES/CHANHASSEN MN
500 AM CDT WED OCT 01 2014


NOTE: "FAIR" INDICATES FEW OR NO CLOUDS BELOW 12,000 FEET WITH NO
SIGNIFICANT WEATHER AND/OR OBSTRUCTIONS TO VISIBILITY. N/A MEANS
CURRENT SKY AND/OR WEATHER CONDITIONS ARE NOT AVAILABLE.

MNZ060>063-068>070-011100-
   Twin Cities Metro

CITY           SKY/WX    TMP DP  RH WIND       PRES   REMARKS
TWIN CITIES    CLOUDY    50  44  80 SE13G24   29.85S
ST PAUL        CLOUDY    51  45  79 SE14      29.86F
CRYSTAL        MOCLDY    52  44  74 SE8       29.83S
BLAINE         MOCLDY    54  46  76 SE12G17   29.84S
LAKEVILLE      CLOUDY    48  45  87 SE7       29.84R
EDEN PRAIRIE   CLOUDY    51  45  79 SE12      29.83R
SOUTH ST PAUL  CLOUDY    51  44  77 SE9       29.85S
LAKE ELMO      CLOUDY    50  45  81 SE7       29.86F
$$
MNZ001>005-007-008-013>017-022>024-027-028-011100-
   Northwest Minnesota

CITY           SKY/WX    TMP DP  RH WIND       PRES   REMARKS
BEMIDJI        CLOUDY    53  49  86 SE17      29.69S
HALLOCK        CLOUDY    63  55  77 S22G32    29.47S
ROSEAU         CLOUDY    55  48  76 SE17G25   29.57F
WARROAD        MOCLDY    52  48  87 SE18G26   29.60F
THIEF RVR FALL CLOUDY    59  52  77 S18G28    29.56S
CROOKSTON      CLEAR     61  57  88 S24G32    29.56R
FOSSTON        MOCLDY    57  52  82 S18       29.62S
DETROIT LAKES  CLOUDY    59  55  88 S13       29.67R
PARK RAPIDS    CLOUDY    53  49  86 S18       29.72R
MAHNOMEN       FAIR      57  53  88 S15G22    29.62R
$$
MNZ006-009>011-018-025>026-011100-
   North Central Minnesota

CITY           SKY/WX    TMP DP  RH WIND       PRES   REMARKS
BAUDETTE       CLOUDY    50  44  80 SE12      29.67F
FLAG ISLAND    CLOUDY    52  46  82 SE25G32   29.62F
INTL FALLS     MOCLDY    49  43  80 SE12      29.75F
WASKISH        CLOUDY    52  46  82 SE13G21   29.68F
BIG FORK       CLOUDY    50  45  81 SE8       29.77S
LONGVILLE      CLOUDY    52  48  87 SE8       29.76F
GRAND RAPIDS   CLOUDY   N/A N/A N/A SE12G20   29.78F
CRANE LAKE     CLOUDY    46  43  87 SE3       29.83R
ORR            CLOUDY    48  41  76 SE9       29.77F
COOK           MOCLDY    48  45  87 SE8G16    29.82S
WALKER         CLOUDY    52  47  85 S12G21    29.73S
$$
MNZ012-019>021-037-011100-
   Northeast Minnesota

CITY           SKY/WX    TMP DP  RH WIND       PRES   REMARKS
DULUTH         CLOUDY    47  42  83 SE13      29.87F
ELY            MOCLDY    46  43  87 S9        29.85S
HIBBING        CLOUDY    50  44  80 SE9       29.83F
EVELETH        CLOUDY    48  45  87 SE8       29.85F
DULUTH HARBOR  CLOUDY    50  45  81 E7        29.90F
TWO HARBORS    CLOUDY    46  43  87 SE5       29.89S
SILVER BAY     MOCLDY    46  46 100 E7        29.90R
GRAND MARAIS     N/A     49  45  86 VRB3      29.95S
G MARAIS ARPRT FOG       43  39  87 SE5       29.94R VSB<1/4
$$
MNZ029>031-032-039>041-046>048-054>057-064-011100-
   West Central Minnesota

CITY           SKY/WX    TMP DP  RH WIND       PRES   REMARKS
FERGUS FALLS   MOCLDY    61  57  88 S16G22    29.68S
WHEATON        PTCLDY    57  55  94 S10       29.68S
MORRIS         PTCLDY    61  57  88 SE13      29.69S FOG
ALEXANDRIA     CLOUDY    56  55  97 SE15      29.74S FOG
ELBOW LAKE     CLOUDY    59  56  91 S15       29.69S
WADENA         CLOUDY    54  50  87 SE14      29.72S
GLENWOOD       CLOUDY    55  55 100 SE10      29.75S FOG
APPLETON       CLOUDY    63  57  82 SE7       29.70F
BENSON         CLOUDY    59  57  94 S13       29.72S
ORTONVILLE     CLOUDY    61  57  88 S5        29.69S
MADISON        MOCLDY    66  61  82 S9        29.70F
WILLMAR        CLOUDY    55  52  88 SE12G18   29.76S
$$
MNZ033>034-036-042>043-049>051-058-059-011100-
   Central Minnesota

CITY           SKY/WX    TMP DP  RH WIND       PRES   REMARKS
ST CLOUD       CLOUDY    53  46  77 SE12      29.80F
SAUK CENTRE    CLOUDY    52  51  97 SE10G17   29.77S FOG
PAYNESVILLE    CLOUDY    52  49  90 E14G21    29.77F
AITKIN         CLOUDY    52  46  82 SE7       29.79S
PINE RIVER     CLOUDY    52  46  82 SE12G17   29.80S
BRAINERD       CLOUDY    50  46  86 SE12G21   29.79S
STAPLES        CLOUDY    50  46  87 SE14G20   29.74S
LONG PRAIRIE   CLOUDY    50  50 100 SE12      29.77R FOG
LITTLE FALLS   CLOUDY    50  45  81 SE9       29.79S
LITCHFIELD     CLOUDY    54  52  94 SE10      29.79F
BUFFALO        CLOUDY    51  46  80 SE8       29.83S
MAPLE LAKE     CLOUDY    53  49  85 SE8       29.82S
$$
MNZ037-044-045-052-053-011100-
   East Central Minnesota

CITY           SKY/WX    TMP DP  RH WIND       PRES   REMARKS
PRINCETON      MOCLDY    52  46  82 SE7       29.83S
MORA           PTCLDY    45  41  87 SE7       29.86S
CAMBRIDGE      MOCLDY    52  43  71 SE6       29.83S
RUSH CITY      CLOUDY    48  43  83 SE8       29.86S
MOOSE LAKE     PTCLDY    46  43  87 SE6       29.84S
HINCKLEY       PTSUNNY   46  45  93 SE7       29.86S
CLOQUET        CLOUDY    46  43  87 SE6       29.86S
MCGREGOR       CLOUDY    48  45  87 SE10      29.82S
$$
MNZ071>073-080-081-089-090-097-098-011100-
   Southwest Minnesota

CITY           SKY/WX    TMP DP  RH WIND       PRES   REMARKS
MONTEVIDEO     CLOUDY    61  61 100 S8        29.72F
GRANITE FALLS  CLOUDY    61  58  90 SE8       29.74S
CANBY          CLOUDY    63  59  87 CALM      29.71S
MARSHALL       CLOUDY    63  57  82 S14       29.70F
REDWOOD FALLS  CLOUDY    57  54  89 SE10      29.74F
OLIVIA         CLOUDY    57  54  88 SE13      29.74F
PIPESTONE      CLOUDY    61  59  94 S12       29.72S FOG
WINDOM         CLOUDY    57  55  94 SE12      29.76S
WORTHINGTON    CLOUDY    57  55  94 S12       29.75F
JACKSON        CLOUDY    57  54  88 SE9       29.78S
TRACY          CLOUDY    62  59  91 S12       29.73S
SLAYTON        CLOUDY    59  58  96 S9        29.75S FOG
$$
MNZ065>067-074>077-082>085-091>093-011100-
   South Central Minnesota

CITY           SKY/WX    TMP DP  RH WIND       PRES   REMARKS
MANKATO        CLOUDY    54  45  71 SE12      29.80F
NEW ULM        CLOUDY    54  54 100 SE10      29.78S
ST JAMES       CLOUDY    59  55  88 SE9G16    29.79S
FAIRMONT       CLOUDY    55  48  76 SE15G22   29.79S
GLENCOE        CLOUDY    53  46  77 E9        29.80F
FARIBAULT      CLOUDY    52  46  82 SE14G20   29.84S
OWATONNA       CLOUDY    52  46  82 SE12G20   29.84S
WASECA         CLOUDY    50  43  76 SE13G22   29.84S
ALBERT LEA     LGT RAIN  50  48  93 SE15G21   29.84F
$$
MNZ078>079-086>088-094>096-011100-
   Southeast Minnesota

CITY           SKY/WX    TMP DP  RH WIND       PRES   REMARKS
ROCHESTER      LGT RAIN  48  45  89 SE13G23   29.88F
RED WING       CLOUDY    52  45  76 SE16G22   29.86F
STANTON        LGT RAIN  51  45  79 SE7G16    29.84R
DODGE CENTER   LGT RAIN  48  46  93 SE14      29.87R
WINONA         CLOUDY    50  43  76 SE13      29.92F
AUSTIN         DRIZZLE   48  46  93 SE6       29.87R
PRESTON        CLOUDY    47  44  91 SE10G17   29.91S
$$
ABBREVIATIONS USED IN REMARKS
   TC - TEMPERATURES IN CELSIUS
  WCI - WIND CHILL INDEX
   HX - HEAT INDEX
  VSB - VISIBILITY
$$


USA.gov is the U.S. government's official web portal to all federal, state and local government web resources and services.